User: anonymous   Login
Location: Ljubljana
(46.0552°N, 14.5144°E)
Time: 22:43:32
(UTC+02:00)
Language:

ISS - Orbit

View from above orbital plane
View from above orbital plane
View from above satellite
View from above satellite

Ground track
Ground track

The orbit data is extracted from the following two-line orbital elements,

1 25544U 98067A   21208.30146631 -.00003369  00000-0 -53333-4 0  9991
2 25544  51.6439 144.3575 0001405 200.4665 262.5751 15.48855261294819
Epoch (UTC): 27 July 2021 07:14:06
Eccentricity: 0.0001405
inclination: 51.6439°
perigee height: 419 km
apogee height: 421 km
right ascension of ascending node: 144.3575°
argument of perigee: 200.4665°
revolutions per day: 15.48855261
mean anomaly at epoch: 262.5751°
orbit number at epoch: 29481

The dashed part of the orbit path shows where the satellite is in the earth's shadow,  

DLR